Location: Balagbag Mahabang Kahoy
(14.1562°N, 120.9200°E)
Time: 18:44:59
(UTC+00:00)

UNK - Pass Details

Date: 16 January 2026
Orbit: 654 x 673 km, 98.4° (Epoch: 17 February)

Event Time Altitude Azimuth Distance (km) Brightness Sun altitude
Rises 20:51:18 0° 174° (S) 3,001 7.4 -22.2°
Reaches altitude 10° 20:53:33 10° 178° (S) 2,086 6.5 -21.7°
Maximum altitude 20:58:03 62° 258° (WSW) 747 3.6 -20.6°
Enters shadow 20:59:21 43° 318° (NW) 935 4.0 -20.3°
